"Pseudo-MPEC" for P21AXhm

Created 2022 Nov 28 1:22:23 UT using Find_Orb

Click here for an explanation of pseudo-MPECs

 
 Astrometry: 
     P21AXhm  C2013 11 25A[nwUA@JyL^I*aURBGq?vL8@U`_-^t!8q1m+ilX'hqoerf*n8BiGF51
     P21AXhm  C2013 11 27\+`jC[E[,VyiltJbAstrometry69Y+$QLb^ifAt1a0SHAS!]vGWGF51
     P21AXhm  C2013 11 27/G:BStYZNwq=9kx$c95=aVJ=9GdJntq.p$D7:r52i,L5*PRD?o_uF51
     P21AXhm  C2013 11 27@hAAliodQeB10ZK(I]L//;n:m8Y=QU7.wXOjGD.R/*c?d43q(w[CF51
     P21AXhm  C2013 11 27ku6]T-4cDB;Vq_W;m/%wrredacted;D,)X(9KqhTB#C`He!X7:6,F51
     P21AXhm  C2013 11 27aE1^0T$0^\mdOr6=hj:lg:SULDIbP0.H#^6;A]%JVohD:(6'\*4kF51
     P21AXhm  C2013 11 27WX:?cJ'Yra_OFOjA3JkC?YgY;X;QOBsb6m%:N8g6w6-WmWH6P\XdF51
     P21AXhm  C2013 11 27wj%O,.KZp'OVUgCE`[EGl8$;).warNQwW7,]qVyx`U.MS-FmCE:5F51
     P21AXhm  C2013 12 057r*@'[y0fvg$\$Om#NS36Z@C3fKMVcE`]KB?JR_!sc7R9*UA]BWrF51
     P21AXhm  C2013 12 05bTRuuXQu!7XM3QQ?7,mDEmNThfwE89TjiOHkCmqVt+-%$D2qyVF^F51
     P21AXhm  C2013 12 07q5$H4;ha*=/Pw-wIcK.JP2I*LH1K7iM`inGMf0W=qTf4Yt90abLkF51
     P21AXhm  C2014 01 06dykfdqX-D^G3,naLYrD*M0?,_Xptwk8P6Xn-j!RN#?5qZ;*S_iZJF51
     P21AXhm  C2014 01 06b@ct7cnhT,Df,/A^7DWLp8hTk'CKQ+k:%\#s$1Yv0Rba*TRN1%xIF51
     P21AXhm  C2021 08 05GSn(v?Z(eNa!,5=nM?CaIw:Q/sPXt]'Y6;ee#Aq8!h`Wpav9y7pQF51
     P21AXhm  C2021 08 05FC[Xq_Nw`dm%)pTb!C39c/,@/Cj:ChuV_9o3j/R]i5-ijIE3LXiAF51
     P21AXhm  C2021 08 052cP0Tj-B?c[X3I#B!:ej/ZKTGwfMA-:*8$8\1ZOp4b?7^t,Jd.3EF51
     P21AXhm  C2021 08 05YgF1-N,nB6,FOi1cE`YYRK;LW?k?RjRs6cdoN,`[,i$R#Xf\[raPF51
     P21AXhm  C2021 09 08Eroj7GZjtp-T5W(u==(`AF8x$X59QviPoclick^@`_TP3$^g9op5F52
     P21AXhm  C2021 09 0823qr/=d-uwB5(?XXhqRNV,YDdq1Xf'GRo$$5B10?.yG'XYoO1w_qF52
     P21AXhm  C2021 09 080)\[;:GvaSkYWIn[$?CXAJ6s?2JX][bsW3SNqy-)HU)]ZlwP(x#!F52
     P21AXhm KC2021 09 25dNYGcuAYR.w`7I9DRa5y47%Z50g3=Q;PR$LM^X\5s^1qjsK%r9qQF52
     P21AXhm &C2021 09 26s`;5'O,Xj]dI/8-gNv`G5qrYDx_pk0eJ=TQlac7x'`-?GNmwhn2:W84
     P21AXhm &C2021 09 26Al^?+/do1)sN^$uyAfwH^B'f5$U^koY]-RBk'FdV*h+]/qZ1QrSXW84
     P21AXhm  C2021 09 30^C\9'Mb`dpl,2.Q:T;J8)/OlZc$1[Wi@%3[SvuqlgXXP/L*KPw._F52
     P21AXhm  C2021 09 30!sjY*K6MEkS3L`/WUi5g?En$pDU$^[YWKlQ)iPNBcT(rV`'OIst=F52
     P21AXhm  C2021 09 30wDa,Iyh\WmOsD2bu:_8nAeK[l%1;x+2vPt\SsJi*rr#*@kD%*morF52
     P21AXhm  C2021 09 30\;wm1uRCK(q.5k2YO*QS!\MFZ,*M,SEhov5rh#wJu+:@rsoJW`O$F52
     P21AXhm  C2021 10 26A5bHBnd1jkhH:lCy,=q%3NPi_6s=1.ZPB(;-r;Ri])Ox\\;.;(6EF52
     P21AXhm  C2021 10 30ru\kmGys'*o/E\:.KQ..Z,DpHR2PhWmm1;G^BQS,P/hD=mu%!U2EF52
     P21AXhm  C2021 10 30L4R8d@og8=4#X5aTfn`pWN:NAiTvy@BKTt=rn29aO(da=*tT,+oZF52
     P21AXhm  C2021 10 30L8h#7.EsYiAF((O0m7NsS2G/fS:5hA(0D?sC65I$7oa@yqg6y:C1F52
     P21AXhm  C2021 11 06aRRomA74IG2CtUYdK(hbR)\Q!#AT=d@Ypr(=9sQ=t=`or?YC!!`-F51
     P21AXhm  C2021 11 06+B8`Y:=wZPn,X1Q==LZWuSPTP+U69`3Q31;*.O[V6mhjy+a%ern.F51
     P21AXhm  C2021 11 06Iyc9l$LD$9/sDq#Y(9p)Y!j^@b8m0Fp/d/Vh6TF)=@'hC`p6Af?AF51
     P21AXhm  C2021 11 06c_%Q/5x%xhT*X.*b%JinG*d7K+0KLsdBxp+gndf0S@n1)xs.#=V$F51
     P21AXhm  C2021 11 07GArLwRbORXZ@E`jRZ8ccj7LGT(L!#BM)HJ6H2eUDyO$D5nvo`:3QF51
     P21AXhm  C2021 11 07Q9x_A$`yFg(o7rq$7H7/M[Du2n\L[gWteojVnjCQ_Z#1^;kaR!hgF51
     P21AXhm  C2021 11 23y=ymS%(@\`RLPb@@+KZ@OEXj6sBkack%c82hAS%C9WoC@j=%oQyDF51
     P21AXhm  C2021 11 23P2hg+dXmN#L78Y]k8Z^J*[jtyIi*#h[5V@u4gI8m:T,M7Qfqj6!KF51
     P21AXhm  C2021 11 23ZO$]s/`;DuKFpFZ]Ir+c77=BWi2GD^'NGK%oTgo$hhereP7G!)8lF51
     P21AXhm  C2022 09 16Z#iGJh_+!I='(YP7FF;4PWLR$'5pM6QPYxG7_c8.?k_p(`pCNFUTF52
     P21AXhm 1C2022 10 20.44275008 09 32.389+34 34 58.12   ~BEFq       VNEOCPG96
     P21AXhm 1C2022 10 20.44797508 09 32.800+34 35 00.85   ~BEFq 21.17GVNEOCPG96
     P21AXhm 1C2022 10 20.45320308 09 33.152+34 35 01.54   ~BEFq 21.63GVNEOCPG96
     P21AXhm 1C2022 10 20.45845408 09 33.541+34 35 03.23   ~BEFq 20.73GVNEOCPG96
     P21AXhm* C2022 10 28R3[B*.X587gl9$Q:]6+B`g\Vd1V?ebS!*7cL.9HG=IYn,IS)/@eeF52
     P21AXhm  C2022 10 28^Pu$p^1qBH4_t6m3_:*9==-$g:avZrW7vMOaxr/21]#$Jr.UiLm9F52
     P21AXhm  C2022 10 280T5j5QlC9srTKD]U!`3V+4eu`'BS7QC[fNx2qk+DEVh=mx?.1ydqF52
     P21AXhm  C2022 10 28gPF(1B[#s$8_SjK$[VH[fkx4CqB.J`%8j%@VHUYAZq[g,kQ=n2]9F52
     P21AXhm KC2022 10 30.49250108 21 14.778+35 30 49.68   ~AUCb 20.74GVNEOCPI52
     P21AXhm KC2022 10 30.49759308 21 15.116+35 30 50.98   ~AUCb 21.58GVNEOCPI52
     P21AXhm KC2022 10 30.50349208 21 15.484+35 30 53.53   ~AUCb 21.11GVNEOCPI52
     P21AXhm KC2022 10 30.50937508 21 15.808+35 30 55.51   ~AUCb 20.73GVNEOCPI52
     P21AXhm 3C2022 10 30eq\6mDaTJSxOMTQ(3s_.)!:OR1w?oj^ftZJ5hNhfX;A/D.\`mjDHT14
     P21AXhm 3C2022 10 30_MUpJte:X,@,fDB.s0tQo`$$CK3bNr5)C9WbS5nMu4r=BE(qvb@\T14
     P21AXhm 3C2022 10 30fx%*JmmR?\[v8%)'s1Vb]t*(VU$P:*NthRA[*`r?#nW\Q8Ubo=yCT14
     P21AXhm 3C2022 10 31[S1_qaTU6NChoYM/Qlfy$HPpXm?OFbQ(o=Af$uun#?7Lxd\)V(ZKT14
     P21AXhm 3C2022 10 31X+)%JXLgdT\'u#_KxTN=E!o/7x?9T9_Gr/ZxvxR3Y(6-4L[,q6!ZT14
     P21AXhm 3C2022 10 31'TTu4.9Mm;VOx-M+@,3V$@jQUvFR7',k@SHF1HV`c3+]srmwl^(4T14
     P21AXhm 3C2022 10 31_H@P)forLA,Gtot3q*MqH:W+3OydB7Gx%`FF6)LW5s+kBYXmc+?1T14
     P21AXhm 3C2022 10 31Evq2%JQ!;xy@^y@N)G+rtjd=#BdfN)RMY#:_Mk:hC:b[9]/v*no$T14
     P21AXhm KC2022 11 028Yu;!`[)C31#6K=pV_mp(d_7:i_/GQBClx]M[;l)+qyIAVb4dDI-W62
     P21AXhm KC2022 11 02_lFHnwE7CwNKXTf%8Kv7NG7,N!#L%deKeh?30`08eBmQG_VxP+pxW62
     P21AXhm KC2022 11 02BwYRVxr\c`U%Mf?7$*YK5'0l%aQu9sQ?JeK[cw=]r_d8%!qc[BS-W62
     P21AXhm |C2022 11 02yuHPJa#UZM@_b)explanation]%/tRo_DN`;ku8D7yCfGs6bvlB$H06
     P21AXhm |C2022 11 02f'@pY9R(xP08l4^F%]Dl*=\lnNhL;IlehFx'x'Y)7qum_Y:e^1UmH06
     P21AXhm KC2022 11 04F#v4Ok7v0%B.`ui?$[kSNPfh;\L\\t(9ppi;-?Kg;YMjIGH^l!2BW62
     P21AXhm KC2022 11 04A!8#[_q8A1bkT#ysN@hbGYen'I`][]$6u(rmAi`cTHT.-[TMJpu)W62
     P21AXhm KC2022 11 04[Cd*^GfuVJ.N=)r#lL!5Rbp`j@W?#lBwC=OIsy1=;NtaTi,%:mI4W62
     P21AXhm KC2022 11 23$hlp*4G_1d4584n+ov%1PZMtf,h3U7Cnb(\cgHN!]@i7ht-dT:4EW62
     P21AXhm KC2022 11 23hRV4-Y%+'A3+Tf3U#-Enus!_'sS;?Bpqx^X1==m9P1D*Q1:.r9mfW62
     P21AXhm KC2022 11 23X,nQ9cp[YA4qTy5qlNWL`b7J/mMVZ_(6Ukak%(%P\Xe.%m0\spy0W62
     P21AXhm 3C2022 11 23KIsrP),5EhL!43l9oKi,)/:.V$EPND:Sm4LxqX3=G_r[LNviq(LZT14
     P21AXhm 3C2022 11 23v57ZgNX'(%o.#g@7^APVVWN*S=V[C612'1ln9$Pu^y)a@JR$k]4HT14
     P21AXhm 3C2022 11 23:b,mY(#S954$\)q:3mxfv:-FeF]HwbTDvqS$sBlQXuIsbKOl?6mfT14
     P21AXhm KC2022 11 24!9#!a!oy:@ZmxS5k+n@.A]Jl2fc,#V/%qdwAd7aD^:QM_6A%DbncW62
     P21AXhm KC2022 11 24NeOP([T_j30U0Qs!m=_aHfF_.K)$hxg=GEwU^BhIwRTpSGgl.5XTW62
     P21AXhm KC2022 11 24N@ZXEH0fM)?LZte4Snh#!jjGRZZa.TA@SCP@;WI[*]UI`L79t%qvW62

Station data:
(F51) Pan-STARRS 1, Haleakala  (N20.707234 W156.255910)  US/Hawaii.
   Observers J. Bulger, T. Lowe, A. Schultz, M. Willman. Measurers K.
   Chambers, S. Chastel, T. de Boer, L. Denneau, J. Fairlamb, H. Flewelling,
   M. Huber, C.-C. Lin, E. Magnier, Y. Ramanjooloo, R. Wainscoat, R. Weryk.
   1.8-m Ritchey-Chrétien + CCD.
(F52) Pan-STARRS 2, Haleakala  (N20.707382 W156.255910)  US/Hawaii.
   Observers J. Bulger, T. Dukes, T. Lowe, A. Schultz, M. Willman. Measurers
   K. Chambers, S. Chastel, T. de Boer, L. Denneau, J. Fairlamb, H.
   Flewelling, M. Huber, C.-C. Lin, E. Magnier, Y. Ramanjooloo, R. Wainscoat,
   R. Weryk. 1.8-m Ritchey-Chrétien + CCD.
(G96) Mt. Lemmon Survey  (N32.442751 W110.788720)  US/Arizona.  Observers T.
   A. Pruyne, B. M. Africano, J. D. Ahern, E. C. Beshore, A. Boattini, E. J.
   Christensen, G. A. Farneth, D. C. Fuls, A. R. Gibbs, A. D. Grauer, H.
   Gröller, R. E. Hill, J. A. Johnson, R. A. Kowalski, S. M. Larson, G. J.
   Leonard, R. G. Matheny, R. H. McNaught, D. Rankin, R. L. Seaman, F. C.
   Shelly, K. W. Wierzchoś. Measurer  K. W. Wierzchos. 1.5-m reflector + 4K
   CCD + 10K CCD.
(H06) RAS Observatory, Mayhill  (N32.903322 W105.528700)  US/New
   Mexico.  Observer H. Sato. 0.43-m f/6.8 astrograph + CCD + f/4.5 focal
   reducer0.25-m f/3.4 reflector + CCD0.50-m f/6.8 reflector + CCD + f/4.5
   focal reducer0.10-m f/5.0 astrograph + CCD.
(I52) Steward Observatory, Mt. Lemmon Station  (N32.442544 W110.788920)
   US/Arizona.  Observers T. A. Pruyne, B. M. Africano, J. D. Ahern, E. C.
   Beshore, A. Boattini, E. J. Christensen, G. A. Farneth, D. C. Fuls, A. R.
   Gibbs, A. D. Grauer, H. Gröller, R. E. Hill, J. A. Johnson, R. A.
   Kowalski, S. M. Larson, G. J. Leonard, R. G. Matheny, R. H. McNaught, D.
   Rankin, R. L. Seaman, F. C. Shelly, K. W. Wierzchoś. Measurer  K. W.
   Wierzchoś. 1.0-m reflector + CCD.
(T14) Mauna Kea-UH/Tholen NEO Follow-Up (CFHT)  (N19.825252 W155.468876)
   US/Hawaii. 3.6-m Canada-France-Hawaii Telescope.
(W62) Comet Hunter Observatory2, New Ringgold  (N40.745185 W75.862390)
   US/Pennsylvania.  Observer J. Maikner. 0.30-m f/3.8 Riccardi-Honders + CCD.
(W84) Cerro Tololo-DECam  (S30.169594 W70.806420)  Chile.  Observer S. Deen.
   4.0-m reflector + CCD.

Orbital elements:  P21AXhm
   Perihelion 2022 Jul 25.95584 +/- 0.00132 TT = 22:56:24 (JD 2459786.45584)
Epoch 2022 Nov 24.0 TT = JDT 2459907.5   Ju: 0.0646           AutoNEOCP
M  13.83729828 +/- 0.00015          (J2000 ecliptic)
n   0.11431611 +/- 2.21e-8          Peri.   19.98328 +/- 0.00027
a   4.20466192 +/- 5.43e-7          Node    54.58937 +/- 0.000038
e   0.3612637 +/- 3.95e-7           Incl.   19.81274 +/- 0.000013
P   8.62                   H 16.6   G  0.15   U  1.3
q 2.68566978 +/- 1.33e-6    Q 5.72365405 +/- 2.38e-6
From 78 observations 2013 Nov. 25-2022 Nov. 24; mean residual 0".24
Residuals in arcseconds: 
131125 F51  .09+  .09+    210930 F52  .08-  .02+    221030 I52  1.0-  .12+    
131127 F51  .13-  .08+    211026 F52  .00   .22-    221030 T14  .02+  .01-    
131127 F51  .04-  .07-    211030 F52  .26+  .05-    221030 T14  .03+  .00     
131127 F51  .02-  .10+    211030 F52  .03-  .01+    221030 T14  .07+  .00     
131127 F51  .36-  .10+    211030 F52  .14+  .27+    221031 T14  .11+  .01+    
131127 F51  .12+  .01-    211106 F51  .26+  .48+    221031 T14  .05+  .02-    
131127 F51  .31-  .07+    211106 F51  .48+  .16+    221031 T14  .08+  .01-    
131127 F51  .16-  .08-    211106 F51  .07+  .05+    221031 T14  .05+  .01-    
